Weather in Melton

Australia     37°40′59″S   144°34′45″E
temp.,
°C
wind,
m/s
gust,
m/s
humid.,
%
clouds,
%
prec.,
mm/h
press.,
hPa
HPBL,
m
14 june, mon
mon1401:00+11n1168100 0.0 101711
04:00+10n1167100 0.0 101711
07:00+10nnw1168100 0.0 101711
10:00+11nne1266100 0.0 1018136
13:00+14n235792 0.0 1016655
16:00+13nne246257 0.0 1015134
19:00+9nnw3371100 0.0 101638
22:00+9nnw2272100 0.0 101728
15 june, tue
tue1501:00+8nnw227526 0.0 101724
04:00+6nnw227874 0.0 101616
07:00+7nne227757 0.0 101723
10:00+11nne256563 0.0 1017317
13:00+15nne4657100 0.0 1015859
16:00+12ne366999 0.0 1014374
19:00+11ne387499 0.0 1015307
22:00+9ne378240 0.1 1015140
16 june, wed
wed1601:00+10nne51277100 0.1 1013405
04:00+11nne61583100 0.9 1012621
07:00+10n51188100 0.8 1013397
10:00+11n61184100 1.0 1012701
13:00+13nne4776100 0.4 1010699
16:00+11n3585100 1.1 1009173
19:00+10nw2388100 1.1 100953
22:00+10nw2283100 1.2 100940
17 june, thu
thu1701:00+8nw3785100 0.0 1010153
04:00+6nw35883 0.0 100992
07:00+6nw33915 0.0 101148
10:00+10nnw23776 0.0 1011260
13:00+12wnw357399 0.1 1010680
16:00+11wnw367898 0.4 1010245
19:00+10nnw358395 0.1 1010120
22:00+9nnw2484100 0.1 1010105
18 june, fri
fri1801:00+10nw1185100 0.0 101027
04:00+9wnw1188100 0.1 101011
07:00+9sw2389100 0.1 1012105
10:00+10sw368893 0.3 1014351
13:00+12ssw6980100 0.5 1014933
16:00+11ssw7118839 2.8 1015863
19:00+10ssw71391100 0.6 1018946
22:00+10ssw8148999 1.4 1020962